Hc Nadja Maria — V2AV4 — position and weather

sailwx.info

Track history (hours):
 
Tides and Currents Weather Stations Pressure Air Temp Water Temp Dewpoint Dewpoint Depression Visibility Wind Speed Wind Dir Waves Ship Positions

Hc Nadja Maria

Last reported at 2014-Jul-22 16:33 UTC. Time now 2014-Jul-23 01:46 UTC.
Position N 39°53' W 011°57'.

Length 129 m; draft 7.5 m.

Type: Cargo ship. MMSI: 304204000.

Date/timePositionNaut miles runAvg speedWind from/ knotsBaromVisibWave heightAir tempDewpointWater temp
2014-Jul-22 16:33N 39°53' W 011°57'7111.1
2014-Jul-22 10:09N 38°44' W 012°24'711.1
2014-Jul-22 09:31N 38°38' W 012°27'1111.1
2014-Jul-22 08:33N 38°28' W 012°31'1110.9
2014-Jul-22 07:33N 38°17' W 012°36'1111.1
2014-Jul-22 06:33N 38°06' W 012°39'1510.6
2014-Jul-22 05:05N 37°51' W 012°44'1710.9
2014-Jul-22 03:31N 37°35' W 012°48'1311.0
2014-Jul-22 02:23N 37°22' W 012°52'1011.1
2014-Jul-22 01:28N 37°13' W 012°55'1011.2
2014-Jul-22 00:33N 37°03' W 012°59'1111.3
2014-Jul-21 23:33N 36°52' W 013°02'1211.8
2014-Jul-21 22:31N 36°40' W 013°06'  
Track history (hours):
 
Tides and Currents Weather Stations Pressure Air Temp Water Temp Dewpoint Dewpoint Depression Visibility Wind Speed Wind Dir Waves Ship Positions

Hc Nadja Maria

Last reported at 2014-Jul-22 16:33 UTC. Time now 2014-Jul-23 01:46 UTC.
Position N 39°53' W 011°57'.

Length 129 m; draft 7.5 m.

Type: Cargo ship. MMSI: 304204000.

Date/timePositionNaut miles runAvg speedWind from/ knotsBaromVisibWave heightAir tempDewpointWater temp
2014-Jul-22 16:33N 39°53' W 011°57'7111.1
2014-Jul-22 10:09N 38°44' W 012°24'711.1
2014-Jul-22 09:31N 38°38' W 012°27'1111.1
2014-Jul-22 08:33N 38°28' W 012°31'1110.9
2014-Jul-22 07:33N 38°17' W 012°36'1111.1
2014-Jul-22 06:33N 38°06' W 012°39'1510.6
2014-Jul-22 05:05N 37°51' W 012°44'1710.9
2014-Jul-22 03:31N 37°35' W 012°48'1311.0
2014-Jul-22 02:23N 37°22' W 012°52'1011.1
2014-Jul-22 01:28N 37°13' W 012°55'1011.2
2014-Jul-22 00:33N 37°03' W 012°59'1111.3
2014-Jul-21 23:33N 36°52' W 013°02'1211.8
2014-Jul-21 22:31N 36°40' W 013°06'  

Dump ship's entire track history